Home > Weather > Bamenda > Past weeks

Flag for Cameroon Past Weather in Bamenda, Cameroon — Yesterday and Last 2 Weeks

Now
77 °F

Cloudy.


Feels Like: 78 °F
Forecast: 62 / 76 °F
Wind: 5 mph from West

Location: Douala Obs.

Current Time: Jul 30, 2016 at 4:09:19 PM

Latest Report: Jul 30, 2016 at 3:00 PM


Visibility: 4 mi

Pressure: 29.86 "Hg (25.90 "Hg at 1240m altitude)

Humidity: 94%

Dew Point: 75 °F

Location of BamendaLocation

Past Weather in Bamenda — Graph

°F

Bamenda Temperature Yesterday

Maximum temperature yesterday: 81 °F (at 1:00 PM)
Minimum temperature yesterday: 75 °F (at 1:00 AM)
Average temperature yesterday: 76 °F

High & Low Weather Summary for the Past Weeks

 TemperatureHumidityPressure
High86 °F (Jul 17, 2:00 PM)100% (Jul 15, 8:00 PM)29.98 "Hg (Jul 15, 8:00 PM)
Low73 °F (Jul 16, 3:00 AM)66% (Jul 17, 4:00 PM)29.83 "Hg (Jul 15, 4:00 PM)
Average78 °F90%29.91 "Hg
* Reported Jul 15 3:00 PM — Jul 30 3:00 PM, Bamenda, Weather by CustomWeather, © 2016

Note: Actual official high and low records may vary slightly from our data, if they occured in-between our weather recording intervals... More about our weather records

Advertising

Bamenda Weather History for the Previous 24 Hours

Scroll right to see more
 ConditionsComfort  
Time TempWeatherWind HumidityBarometerVisibility
3:00 PM
Sat, Jul 30
77 °FCloudy.5 mph94%29.86 "Hg4 mi
2:00 PM79 °FDrizzle. Broken clouds.8 mph89%29.89 "Hg4 mi
1:00 PM79 °FDrizzle. Broken clouds.2 mph89%29.92 "Hg4 mi
12:00 PM77 °FDrizzle. Cloudy.5 mph94%29.95 "Hg1 mi
11:00 AM75 °FDrizzle. Cloudy.7 mph94%29.95 "Hg2 mi
10:00 AM77 °FDrizzle. Cloudy.1 mph94%29.95 "Hg1 mi
9:00 AM75 °FDrizzle. Cloudy.No wind100%29.95 "Hg5 mi
8:00 AM75 °FDrizzle. Cloudy.2 mph100%29.92 "Hg1 mi
7:00 AM75 °FDrizzle. Broken clouds.2 mph100%29.92 "Hg1 mi
6:00 AM75 °FThunderstorms. Passing clouds.No wind94%29.89 "Hg5 mi
5:00 AM75 °FPassing clouds.No wind94%29.89 "HgN/A
4:00 AM75 °FThunderstorms. Low clouds.3 mph94%29.89 "Hg5 mi
3:00 AM75 °FThunderstorms. Passing clouds.3 mph94%29.89 "HgN/A
2:00 AM75 °FThunderstorms. Passing clouds.2 mph94%29.89 "HgN/A
1:00 AM75 °FPartly cloudy.1 mph94%29.92 "HgN/A
12:00 AM75 °FThunderstorms. Passing clouds.No wind94%29.92 "HgN/A
11:00 PM
Fri, Jul 29
75 °FThunderstorms. Passing clouds.No wind94%29.92 "HgN/A
10:00 PM75 °FThunderstorms. Partly cloudy.2 mph94%29.92 "HgN/A
9:00 PM75 °FThunderstorms. Partly cloudy.2 mph94%29.92 "HgN/A
8:00 PM75 °FThunderstorms. Partly cloudy.2 mph94%29.89 "HgN/A
7:00 PM75 °FThunderstorms. Partly cloudy.2 mph94%29.89 "HgN/A
6:00 PM75 °FDrizzle. Cloudy.5 mph94%29.89 "Hg4 mi
5:00 PM75 °FDrizzle. Cloudy.6 mph94%29.89 "Hg4 mi
4:00 PM75 °FDrizzle. Cloudy.6 mph94%29.89 "Hg4 mi
Weather by CustomWeather, © 2016

See weather overviewHow to use our weather pages